Home   Weather   Wörlitz   Past weeks
Flag for Germany

Past Weather in Wörlitz, Saxony-Anhalt, Germany — January 2014

Currently: 41 °F. Passing clouds. (Weather station: Leipzig-Schkeuditz, Germany). See more current weather

January 2014 Weather in Wörlitz — Graph

°F

High & Low Weather Summary for January 2014

 TemperatureHumidityPressure
High55 °F (Jan 8, 10:20 am)100% (Jan 1, 7:20 pm)30.21 "Hg (Jan 1, 7:20 pm)
Low10 °F (Jan 25, 5:50 pm)62% (Jan 6, 12:20 pm)29.36 "Hg (Jan 27, 4:20 am)
Average35 °F92%29.83 "Hg
* Reported Jan 1 12:20 am — Jan 31 11:50 pm, Wörlitz. Weather by CustomWeather, © 2022

Note: Actual official high and low records may vary slightly from our data, if they occured in-between our weather recording intervals... More about our weather records

Wörlitz Weather History for January 1, 2014

Scroll right to see more
 ConditionsComfort  
Time TempWeatherWind HumidityBarometerVisibility
12:20 am
Wed, Jan 1
32 °FClear.14 mph93%29.95 "Hg10 mi
12:50 am32 °FClear.15 mph93%29.95 "Hg10 mi
1:20 am32 °FClear.15 mph87%29.92 "Hg10 mi
1:50 am32 °FClear.12 mph87%29.92 "Hg10 mi
2:20 am30 °FClear.13 mph93%29.92 "Hg10 mi
2:50 am32 °FClear.13 mph87%29.92 "Hg10 mi
3:20 am32 °FClear.13 mph87%29.92 "Hg10 mi
3:50 am32 °FClear.14 mph87%29.92 "Hg10 mi
4:20 am34 °FClear.12 mph87%29.92 "Hg10 mi
4:50 am34 °FClear.13 mph87%29.89 "Hg10 mi
5:20 am34 °FClear.12 mph87%29.89 "Hg10 mi
5:50 am36 °FClear.10 mph81%29.89 "Hg10 mi
6:20 am36 °FClear.12 mph81%29.92 "Hg10 mi
6:50 am36 °FClear.12 mph81%29.89 "Hg10 mi
7:20 am36 °FClear.12 mph81%29.89 "Hg10 mi
7:50 am36 °FClear.12 mph81%29.92 "Hg10 mi
8:20 am36 °FClear.12 mph81%29.92 "Hg10 mi
8:50 am36 °FPartly sunny.10 mph81%29.95 "HgN/A
9:20 am36 °FPartly sunny.13 mph81%29.95 "HgN/A
9:50 am36 °FPartly sunny.13 mph75%29.95 "HgN/A
10:20 am37 °FBroken clouds.13 mph75%29.95 "HgN/A
10:50 am37 °FPartly sunny.12 mph75%29.95 "HgN/A
11:20 am37 °FLight rain. Broken clouds.12 mph75%29.95 "HgN/A
11:50 am37 °FLight rain. More clouds than sun.10 mph81%29.95 "HgN/A
12:20 pm37 °FLight rain. More clouds than sun.12 mph87%29.95 "HgN/A
12:50 pm37 °FBroken clouds.13 mph87%29.95 "HgN/A
1:20 pm37 °FBroken clouds.13 mph87%29.95 "HgN/A
2:20 pm39 °FPartly sunny.12 mph81%29.95 "HgN/A
2:50 pm39 °FPartly sunny.12 mph81%29.95 "HgN/A
3:20 pm39 °FPartly sunny.9 mph81%29.92 "HgN/A
3:50 pm37 °FPartly sunny.9 mph87%29.92 "HgN/A
4:20 pm37 °FPartly cloudy.10 mph87%29.92 "HgN/A
4:50 pm36 °FPassing clouds.12 mph93%29.92 "HgN/A
5:20 pm36 °FPassing clouds.14 mph93%29.92 "HgN/A
5:50 pm36 °FPassing clouds.12 mph93%29.92 "HgN/A
6:20 pm36 °FClear.12 mph93%29.92 "Hg10 mi
7:20 pm34 °FClear.10 mph100%29.89 "Hg10 mi
7:50 pm34 °FClear.10 mph100%29.86 "Hg10 mi
8:20 pm34 °FClear.9 mph100%29.86 "Hg10 mi
8:50 pm34 °FClear.12 mph100%29.86 "Hg10 mi
9:20 pm34 °FClear.13 mph100%29.86 "Hg10 mi
9:50 pm36 °FClear.14 mph93%29.83 "Hg10 mi
10:20 pm36 °FClear.14 mph93%29.83 "Hg10 mi
10:50 pm36 °FClear.12 mph93%29.83 "Hg10 mi
11:20 pm36 °FClear.13 mph93%29.80 "Hg10 mi
11:50 pm34 °FClear.12 mph100%29.80 "Hg10 mi
Weather by CustomWeather, © 2022

See weather overview